Wind_Speed
16 15 14 14 14 9 4 3 2 2 2 0 2 1 3 3 1 3 3 2 0 1 1 1 3 3 2 3 7 7 4 3 3 4 2 3 9 20 17 8 20 27 26 25 22 20 18 16 15 14 14 14 16 15 14 13 13 12 11 11 11 12 11 10 9 7 6 6 6 6 7 8 8 9 9 8 8 9 10 10 11 11 11 10 9 7 7 7 7 6 6 7 8 7 7 7 7
16 14 13 13 9 4 1 3 2 3 3 1 3 3 3 3 1 3 5 3 2 2 1 4 6 6 4 5 6 5 4 2 2 2 0 6 15 19 13 11 22 27 26 24 22 21 19 17 15 14 14 14 15 15 14 13 13 12 11 11 11 12 10 9 7 6 6 6 6 6 7 8 8 8 8 8 8 8 10 10 10 10 10 9 8 7 7 7 7 7 7 8 9 10 9 6 6
15 13 13 11 5 3 1 3 2 0 2 3 4 4 2 1 3 6 7 5 5 5 2 4 5 4 4 6 4 3 2 3 2 1 3 11 13 13 13 16 25 26 25 24 22 21 20 17 15 15 14 13 14 14 14 14 13 12 11 11 11 10 9 8 6 6 6 5 7 8 9 10 10 10 9 9 10 10 11 10 9 9 8 6 5 4 5 6 5 6 7 8 9 11 11 7 6
12 10 11 7 3 3 3 3 2 3 2 3 3 5 3 3 5 6 6 5 5 2 2 3 4 2 3 6 3 2 2 3 2 2 5 9 9 13 16 21 25 24 24 23 22 21 19 17 15 15 13 12 13 13 13 13 13 12 11 11 10 9 9 7 7 7 7 7 7 9 9 10 11 11 10 10 10 9 9 8 7 7 7 6 5 5 5 6 6 6 6 6 6 8 9 9 8
9 7 6 4 2 1 2 1 2 3 4 4 1 5 4 5 4 4 5 4 3 1 1 3 2 2 3 4 1 2 1 2 1 3 7 8 12 16 18 22 22 23 24 22 22 21 18 17 15 15 14 12 12 11 11 13 13 11 11 11 10 9 8 6 7 8 8 7 7 7 7 8 9 10 10 9 8 7 6 6 6 7 7 7 7 6 6 6 7 8 7 5 4 4 5 6 6
7 4 3 4 2 1 2 1 2 2 5 4 2 4 4 5 3 3 4 4 2 1 2 3 2 2 3 2 1 2 1 1 1 4 10 11 16 18 20 23 20 21 23 22 22 20 18 17 16 15 13 12 12 10 11 14 13 11 11 11 11 9 8 7 7 8 8 8 7 6 5 6 7 8 8 8 7 6 6 6 6 7 7 6 6 6 5 6 7 7 6 4 4 3 3 3 4
6 3 2 3 1 1 2 3 4 3 4 5 4 5 3 3 2 3 4 2 1 2 2 2 4 6 2 1 2 3 2 1 1 6 12 14 18 19 21 22 20 21 22 22 21 20 19 17 16 15 13 12 11 11 13 15 12 10 10 10 10 9 9 8 8 8 9 8 9 7 6 6 6 6 6 7 6 5 5 5 5 6 6 6 6 5 4 5 7 7 6 5 5 4 3 4 6
4 1 1 3 0 2 2 3 4 3 4 4 4 5 3 3 2 2 2 1 1 1 2 2 3 5 1 2 2 3 6 1 5 10 14 18 20 19 20 21 21 21 21 21 21 21 18 17 16 14 13 12 11 13 15 15 12 10 9 9 9 9 9 9 10 9 9 9 9 8 7 7 6 5 5 5 5 5 4 4 4 5 5 5 6 6 5 4 7 8 6 6 6 5 5 5 7
2 1 0 2 1 1 0 2 3 3 4 5 4 6 5 3 2 1 3 2 1 2 3 3 2 4 2 4 1 3 7 4 10 14 16 20 20 20 20 21 21 21 22 20 21 21 18 16 15 14 14 13 12 14 16 15 12 9 8 9 10 9 9 10 9 8 7 7 6 6 5 5 5 5 4 3 4 4 3 3 3 4 4 4 5 5 7 5 6 8 6 7 7 6 6 6 7
1 1 1 1 1 2 3 3 3 3 5 5 5 7 6 3 2 3 4 2 1 4 3 1 3 4 4 3 1 3 3 8 15 16 18 20 20 20 20 20 20 21 22 21 21 21 18 16 14 14 14 13 13 14 14 14 13 10 8 9 10 9 8 8 8 7 6 6 5 4 2 1 1 2 2 3 3 3 3 4 3 4 4 4 4 4 6 5 7 9 7 8 8 7 7 7 8
1 1 1 2 1 4 4 4 4 3 4 4 4 7 6 3 2 2 2 1 1 4 2 1 4 4 5 2 1 1 4 11 16 18 19 19 20 20 19 19 18 19 21 21 22 21 18 15 14 15 15 13 13 14 13 13 13 11 9 9 8 8 7 7 7 6 5 6 6 5 3 2 2 2 2 2 3 3 3 4 4 5 5 6 6 4 5 5 8 9 7 8 8 8 8 8 9
2 0 2 3 3 4 4 4 5 4 4 4 4 5 3 4 3 2 3 3 2 3 3 2 5 5 5 2 0 2 7 11 14 19 19 20 20 19 18 17 17 19 21 21 22 21 18 15 15 15 15 13 12 14 13 13 14 12 10 9 8 8 8 7 6 5 5 6 7 7 4 3 3 2 3 3 4 4 4 4 4 4 5 6 6 5 5 5 8 9 8 9 9 9 9 9 10
1 2 4 2 3 4 4 4 4 2 4 4 3 3 1 3 1 4 4 3 4 4 4 3 5 6 5 1 2 3 6 10 15 20 20 21 19 18 17 16 16 19 20 21 21 20 18 16 16 15 15 13 11 12 13 13 12 11 10 9 8 8 7 5 5 5 6 7 8 7 5 3 3 2 3 3 4 5 5 5 5 5 6 6 7 6 6 6 8 9 10 10 10 10 10 10 10
1 2 4 2 2 4 5 3 3 3 5 4 1 3 2 1 2 2 4 5 3 4 3 1 5 4 3 3 2 2 5 12 17 19 19 20 19 17 18 16 16 16 17 19 19 19 18 16 17 16 15 13 11 12 13 12 10 10 9 7 7 6 5 4 3 3 4 5 7 8 5 2 2 1 2 3 4 5 5 5 6 7 8 7 8 8 8 8 9 11 11 11 11 12 11 11 12
1 1 2 3 2 3 5 4 4 4 5 2 1 1 3 2 2 2 4 5 2 1 2 2 2 1 4 6 4 4 10 17 18 19 19 19 18 18 18 18 17 16 15 17 18 18 18 17 17 16 14 13 11 11 11 11 9 8 8 6 5 4 3 2 1 1 2 3 5 7 6 3 2 2 2 4 4 5 6 6 8 8 9 8 8 9 9 11 12 13 14 14 13 12 12 12 13
1 1 1 3 4 4 5 5 5 4 4 1 1 0 5 2 3 3 2 2 3 3 3 3 4 3 3 5 6 13 18 21 20 20 20 19 19 18 18 18 16 15 15 17 17 17 17 16 16 15 14 13 12 11 10 9 8 7 6 5 4 3 3 2 1 1 3 4 5 6 6 4 2 3 4 5 6 6 7 8 9 10 9 8 8 8 9 10 11 13 13 14 13 12 12 12 14
1 0 1 4 5 6 6 6 5 4 3 1 3 3 5 1 4 1 3 4 5 4 5 3 5 3 2 4 13 23 23 23 23 22 21 20 19 18 17 16 15 15 15 15 15 16 15 15 15 14 13 12 12 11 10 9 8 7 5 4 3 3 3 3 2 2 5 6 6 6 6 5 4 4 4 6 7 8 9 8 8 8 7 7 7 7 8 9 10 11 11 12 11 11 12 13 14
1 1 4 6 7 6 6 7 5 3 2 1 3 4 4 3 4 1 3 6 5 7 7 5 7 8 9 15 22 24 23 24 23 22 21 19 17 16 16 15 15 15 15 13 13 14 13 14 14 13 12 11 11 11 10 9 8 8 6 5 3 3 2 1 1 3 5 6 7 7 6 6 6 5 5 5 5 5 5 5 5 6 7 7 8 8 9 9 10 11 11 12 12 13 14 14 15
3 1 4 8 6 4 5 7 4 3 3 1 3 5 5 2 3 1 4 4 4 8 7 6 10 10 12 18 22 21 21 23 21 21 19 16 15 14 15 14 13 15 14 12 11 12 12 13 12 11 11 10 10 10 9 9 9 8 8 7 3 1 3 3 5 5 5 5 5 5 4 4 4 5 5 6 6 6 6 7 7 7 7 8 8 9 10 10 11 11 11 12 13 14 15 16 16
3 2 5 7 3 3 4 6 5 3 5 4 3 3 7 5 3 0 5 5 6 7 6 5 7 9 9 12 17 19 19 19 19 20 16 14 14 15 15 12 10 11 13 11 10 11 11 14 12 10 10 10 9 9 9 8 8 7 8 7 4 2 3 2 3 2 3 2 1 2 4 3 3 3 1 3 4 4 4 6 6 7 7 8 8 9 11 11 10 10 11 12 13 14 15 16 17
2 4 6 4 2 4 5 5 7 5 6 5 2 3 6 5 6 4 5 7 5 4 4 4 3 8 7 8 13 16 16 14 15 16 13 13 14 14 14 12 12 10 10 11 9 9 10 12 12 11 10 10 9 8 9 8 6 6 6 6 5 3 4 2 2 3 2 2 4 4 5 6 6 6 5 5 5 5 5 6 6 7 8 8 8 9 11 12 11 11 12 13 14 15 15 16 17
2 5 6 3 1 3 4 4 7 5 7 7 5 4 3 4 8 9 7 7 3 5 8 5 7 9 9 10 13 17 18 17 19 19 17 20 21 21 21 19 19 16 14 14 12 8 7 8 9 11 10 10 9 8 8 7 7 6 5 5 5 3 4 5 5 6 5 5 6 5 5 6 7 7 8 8 9 9 8 9 10 10 10 10 10 11 12 13 13 14 14 14 14 15 15 16 17
4 5 6 5 2 2 4 3 6 5 8 7 6 4 3 6 7 10 12 9 4 6 7 10 13 13 16 17 16 17 16 16 18 18 18 21 22 22 22 22 22 21 21 20 17 12 8 6 5 8 10 10 9 8 7 8 7 5 4 5 4 2 4 6 7 9 9 8 8 8 7 8 8 8 9 10 12 12 11 11 12 12 12 12 12 12 13 13 15 16 16 16 16 15 15 16 17
5 5 6 7 4 2 5 3 5 4 8 7 7 7 6 7 4 7 12 9 8 8 10 14 16 19 22 20 16 16 16 16 18 18 19 22 22 21 23 23 22 22 24 23 20 17 12 8 3 3 7 8 7 7 7 6 4 2 2 3 2 1 3 5 7 8 8 9 9 9 8 8 8 9 10 12 12 12 13 13 14 15 15 15 14 14 15 16 16 17 18 18 18 18 17 18 19
5 7 6 5 4 3 4 2 4 5 7 7 9 9 9 10 8 7 8 8 8 9 13 13 16 20 20 18 16 17 17 17 18 18 22 24 24 25 26 24 23 25 26 24 23 21 18 15 10 6 7 6 4 3 3 4 4 3 4 4 4 4 7 9 9 9 10 10 9 9 8 7 7 8 9 10 10 11 12 13 14 15 16 16 16 16 17 18 18 18 19 20 19 19 19 20 22
3 5 6 5 4 4 2 2 4 5 5 7 11 12 13 12 9 7 5 6 6 10 16 13 14 18 16 16 16 16 16 19 19 18 19 22 26 28 26 24 25 27 25 22 24 24 22 21 19 16 14 12 10 10 10 11 9 9 12 13 12 12 14 14 12 14 14 13 13 12 11 10 8 8 10 11 10 11 11 12 13 13 14 15 16 16 16 17 17 18 20 22 22 21 21 22 23
5 6 7 8 5 4 2 2 4 5 4 7 12 11 10 7 5 4 2 5 5 12 18 14 15 17 15 15 14 16 19 20 19 17 18 23 27 26 23 23 24 25 24 24 25 25 25 24 24 22 21 19 17 18 18 17 16 18 19 17 17 18 18 16 16 19 19 18 18 17 16 15 13 12 13 12 12 12 12 14 15 15 15 15 16 15 14 15 16 17 20 22 23 23 23 24 24
7 7 8 8 5 4 5 3 4 5 2 5 13 9 4 3 5 6 3 4 7 15 18 15 16 15 14 14 13 16 20 20 19 19 21 22 22 21 20 21 21 23 25 27 26 25 26 26 25 26 25 23 22 23 23 22 23 23 22 21 22 21 20 19 20 22 23 24 22 19 19 18 17 17 17 15 15 15 15 16 15 15 16 17 16 14 13 14 15 16 17 18 19 20 22 23 24
6 6 6 8 6 5 7 6 5 2 4 8 13 7 3 6 8 8 4 3 11 17 16 15 15 13 12 12 11 15 18 19 20 21 20 18 18 19 21 21 20 23 25 27 28 28 29 28 28 28 28 26 25 27 27 27 27 26 26 27 28 25 23 23 24 26 27 27 25 23 23 23 22 22 21 20 20 20 20 19 17 18 20 21 20 18 16 15 16 17 17 17 17 18 20 21 22
5 6 4 6 7 6 7 9 6 2 6 10 9 4 3 9 10 8 4 3 12 18 14 13 12 10 10 10 11 13 17 21 20 21 19 17 17 18 21 23 22 23 25 28 30 31 31 30 31 30 30 31 30 30 31 31 31 30 30 31 32 30 29 29 29 30 30 29 29 28 27 27 26 24 23 23 23 23 23 22 21 21 23 24 23 22 20 19 20 22 22 21 20 20 20 21 22
3 6 5 5 7 7 6 9 7 3 3 3 2 4 4 9 10 11 10 8 11 18 13 13 11 9 9 10 11 11 15 22 21 21 20 18 16 16 21 25 25 26 28 31 31 31 31 31 32 32 32 33 33 32 32 32 32 32 31 32 33 34 33 33 33 34 33 32 31 31 30 29 27 24 24 24 25 25 24 24 23 23 24 24 23 23 21 21 23 23 24 23 22 21 21 22 22
2 5 5 6 7 7 5 7 9 7 1 6 1 6 4 7 11 13 12 9 10 18 13 13 12 10 10 10 10 9 13 21 23 24 24 20 17 17 20 22 27 30 30 32 32 31 32 32 32 32 34 35 34 33 33 33 33 33 33 34 35 36 37 36 36 36 35 33 32 32 32 30 28 26 25 25 25 25 25 26 25 25 25 25 24 23 23 24 23 23 24 26 25 23 23 24 24
3 5 5 7 9 7 5 6 9 9 2 10 4 9 5 6 11 13 12 10 9 17 13 13 11 9 11 9 8 8 10 16 20 24 25 22 19 18 20 22 28 32 32 33 33 33 33 33 32 33 35 35 34 34 34 35 36 35 36 36 36 37 38 37 36 35 35 34 33 33 31 30 29 28 27 27 27 27 27 27 27 26 26 26 26 25 26 27 26 26 26 27 27 24 25 26 28
5 5 4 6 10 9 6 7 5 5 9 11 12 13 8 8 10 12 13 10 8 15 13 12 11 9 10 8 7 9 11 12 14 19 21 21 21 19 19 23 28 33 34 34 34 34 34 34 34 34 34 33 33 33 33 34 34 35 35 35 35 36 37 37 36 35 34 34 33 32 30 28 28 28 28 27 28 28 27 27 27 27 27 27 27 27 28 28 28 28 28 28 28 24 24 26 30
4 6 5 4 8 12 9 7 6 12 16 12 14 14 10 11 11 11 11 9 9 14 12 11 11 10 8 6 7 10 11 11 13 18 20 20 21 19 19 23 27 32 34 35 35 34 35 35 34 34 34 33 32 32 32 32 32 33 33 33 34 34 35 35 35 35 34 33 32 32 30 29 29 29 29 28 28 28 27 27 27 27 28 28 29 29 30 31 30 30 29 30 29 25 24 27 31
4 4 6 5 6 10 6 8 10 16 17 11 12 13 10 12 11 10 9 7 9 13 11 10 10 9 7 6 8 9 10 10 12 19 22 20 18 19 22 23 27 32 34 34 35 35 35 34 34 34 33 31 31 31 32 32 33 33 34 35 35 34 34 34 34 34 33 33 32 32 32 32 30 29 30 30 29 29 28 28 27 28 29 29 30 31 31 32 32 31 30 31 32 29 28 31 35
7 8 6 7 6 3 6 11 9 12 15 8 9 15 13 12 11 10 8 7 10 12 11 10 10 8 6 7 9 9 8 9 13 20 22 20 19 20 24 25 28 33 35 35 36 36 35 34 34 33 31 30 31 30 30 30 30 30 32 34 34 33 34 34 33 32 32 32 32 32 33 33 31 30 31 30 30 29 29 29 29 29 29 29 30 30 30 31 32 32 30 30 31 30 29 32 37
5 7 6 5 4 3 6 8 4 7 13 4 4 15 13 10 11 9 9 9 11 11 10 10 10 9 7 7 9 8 7 9 15 20 21 22 22 22 24 27 30 31 33 34 35 36 35 35 34 32 29 30 30 29 29 29 27 27 27 29 32 33 33 33 32 31 30 31 32 32 32 32 32 31 30 31 31 31 31 30 29 29 29 28 28 29 30 32 33 33 32 31 29 27 25 28 35
4 7 6 3 1 6 6 4 2 5 11 6 4 12 12 9 10 9 10 9 9 9 9 9 9 8 7 7 8 8 9 10 13 16 19 21 23 24 25 28 29 29 30 32 33 34 35 35 34 32 31 31 29 27 27 27 26 26 26 27 29 30 30 31 31 30 30 31 32 32 32 32 32 32 31 31 32 32 32 31 29 28 27 28 28 31 33 33 34 34 32 31 29 26 23 24 30
3 6 5 3 5 5 4 2 3 5 7 11 10 11 9 6 8 8 9 7 6 8 9 8 7 8 8 8 8 9 10 9 9 12 16 18 21 24 26 25 26 28 29 30 31 31 33 33 33 33 32 31 30 28 27 25 24 24 25 25 26 27 27 28 30 32 31 31 32 31 32 32 32 32 31 31 31 31 31 30 30 28 27 27 28 31 33 33 33 33 31 30 29 28 26 24 26
5 6 6 3 5 2 6 7 8 10 8 12 13 9 4 4 6 6 5 5 6 7 7 8 7 6 7 8 9 9 9 9 8 9 12 15 19 21 24 24 25 26 27 27 28 28 30 31 32 32 32 31 30 29 27 27 26 25 24 24 25 27 28 29 32 33 32 31 31 30 30 31 32 32 31 31 31 31 31 30 30 29 28 28 28 29 31 31 31 31 30 28 27 27 25 24 25
3 6 9 5 7 9 12 15 12 9 4 6 6 5 1 3 4 3 2 4 6 5 6 8 7 7 7 7 8 8 8 8 8 9 11 14 16 18 22 23 24 24 24 24 25 27 28 29 29 29 29 29 29 29 28 28 28 28 29 29 29 30 31 31 29 28 28 28 28 27 28 30 31 32 32 32 31 32 31 31 30 30 28 28 29 29 30 32 30 29 27 25 25 24 23 24 26
3 3 6 6 11 14 16 16 11 5 4 4 2 2 3 2 2 3 3 4 5 4 5 6 5 6 6 6 7 7 6 6 8 10 11 13 14 16 19 21 21 21 21 22 24 26 27 28 29 28 28 28 28 28 29 29 30 30 31 31 30 28 27 24 22 22 24 25 26 27 28 30 31 32 32 31 31 31 31 31 31 30 29 29 30 30 30 31 29 28 26 23 23 23 22 23 25
2 1 6 11 13 12 12 12 9 4 5 3 2 2 4 2 3 4 5 5 4 3 5 5 4 5 5 6 6 6 6 6 6 7 10 11 13 14 15 17 19 19 20 21 23 25 25 27 29 29 29 29 28 29 29 30 31 30 30 28 26 25 23 21 21 22 23 25 26 27 28 29 30 31 31 31 31 31 31 31 31 31 30 29 30 30 30 30 29 28 26 24 24 23 22 22 22
2 2 6 11 13 11 7 6 7 5 6 4 2 2 3 1 2 4 5 4 4 5 6 6 5 5 5 6 6 6 6 6 6 6 8 10 11 12 13 14 16 17 18 20 23 25 26 26 28 28 29 29 29 29 29 30 30 30 29 28 26 24 22 22 22 24 24 25 27 27 28 29 30 31 31 31 31 31 31 31 31 31 30 30 30 29 29 29 29 29 27 25 25 24 22 22 22
1 3 4 3 6 4 2 3 7 5 5 4 0 1 2 2 1 4 5 5 7 7 7 6 6 6 5 6 6 6 6 5 6 7 7 9 10 10 11 12 14 15 17 21 23 25 25 26 27 28 29 29 29 29 29 29 29 29 29 28 26 24 23 23 24 25 25 26 27 27 28 28 29 31 31 31 31 31 31 31 31 31 30 29 29 28 28 29 29 28 27 26 25 24 23 22 21
4 4 1 4 4 2 2 2 4 4 3 3 1 2 2 2 2 6 6 4 8 10 7 7 6 6 7 6 6 6 5 4 5 6 7 8 9 9 10 12 13 15 18 22 23 23 24 25 26 27 27 27 28 28 29 29 29 29 28 27 26 24 24 24 25 25 25 26 26 26 27 28 29 30 31 31 31 31 31 30 30 30 29 29 28 28 28 28 28 27 26 26 25 24 23 22 21
5 2 2 4 3 1 3 3 2 3 2 2 1 2 1 2 2 6 7 4 11 13 10 11 11 9 9 7 6 6 5 4 4 5 6 7 7 8 8 10 11 13 17 21 22 22 23 24 25 26 26 26 27 27 28 29 28 28 27 26 26 25 25 26 26 26 25 26 26 26 27 28 29 30 31 31 31 31 30 30 29 29 29 28 28 28 27 27 27 27 26 26 25 24 23 22 21
4 1 3 5 3 1 2 1 1 2 1 2 1 1 1 1 2 4 8 8 11 13 12 15 16 14 12 9 7 6 5 5 4 5 6 6 7 7 7 8 9 11 13 17 20 21 21 22 23 25 25 24 25 26 27 28 28 27 27 26 25 25 26 26 26 26 26 26 26 27 28 29 29 30 30 30 30 29 29 29 28 28 28 27 27 26 26 26 26 26 26 26 25 24 23 22 19
4 2 3 3 3 4 3 1 1 1 1 2 3 1 1 1 2 2 5 9 10 9 9 11 14 13 10 9 8 7 6 6 5 5 6 6 7 8 7 7 8 9 11 15 18 19 20 20 22 23 23 23 24 25 26 26 26 26 25 25 25 25 25 26 26 26 25 25 25 26 26 26 27 27 27 28 27 26 27 26 26 26 26 25 25 25 25 25 25 25 24 24 24 23 22 21 19
2 1 2 2 1 3 4 2 2 1 3 2 2 1 1 1 1 4 0 5 7 7 7 8 8 7 7 7 8 8 8 7 5 6 7 8 8 8 8 8 9 10 11 13 16 18 19 19 20 21 22 22 22 23 24 24 24 24 23 24 24 24 24 24 24 24 23 24 24 24 25 25 25 25 25 25 25 25 25 25 25 25 25 25 25 25 25 25 25 25 24 24 23 21 21 19 18
2 1 0 0 1 2 2 2 2 4 4 2 1 1 0 1 1 1 3 6 6 7 8 9 8 7 8 7 8 8 7 7 6 7 8 9 10 10 10 10 11 12 12 13 14 16 17 17 18 19 20 20 20 21 22 22 22 22 22 22 22 22 22 22 23 22 22 22 22 23 23 23 23 23 23 23 23 24 24 24 24 24 24 25 24 24 24 24 24 24 24 24 23 22 20 19 18
1 1 1 2 2 4 5 1 2 5 3 1 1 0 1 1 2 4 6 6 6 8 9 10 10 10 10 9 8 8 7 8 8 7 9 11 12 12 13 13 13 13 13 13 13 14 15 16 16 17 18 18 18 19 19 20 20 20 21 21 21 21 21 21 20 20 20 19 20 20 20 20 21 21 21 21 22 22 22 23 23 23 23 23 23 23 23 22 22 22 22 22 22 21 21 20 19
2 2 4 3 1 3 4 2 2 3 2 0 1 1 1 1 1 5 9 9 10 11 12 11 11 11 11 9 8 9 9 9 8 8 10 11 12 13 14 14 14 14 13 13 12 12 13 14 15 16 16 16 17 17 18 18 18 19 19 19 19 18 18 18 18 17 17 17 18 18 19 19 20 20 20 21 21 22 22 23 23 24 24 24 25 25 24 24 23 23 22 22 21 20 20 20 19
2 2 1 3 2 1 2 2 3 3 1 0 2 2 1 4 4 7 12 15 16 15 15 15 15 14 12 10 10 11 10 9 8 8 10 12 13 14 15 16 15 15 13 12 11 10 11 12 13 14 15 14 15 15 16 17 17 17 17 17 17 17 16 16 16 16 16 16 17 18 18 19 19 20 20 21 22 23 24 24 25 25 26 26 26 26 25 25 24 24 24 23 22 21 20 20 19
3 2 3 2 1 2 2 2 3 4 3 1 1 2 3 6 6 11 18 19 19 20 18 18 18 15 12 10 10 11 10 8 8 7 9 13 14 15 17 18 16 15 13 11 10 9 10 11 12 12 12 12 13 13 14 15 15 15 15 15 15 14 14 14 14 13 14 15 15 16 17 17 18 19 20 20 21 22 23 24 24 24 24 25 24 24 24 23 23 22 22 22 22 21 20 19 18
2 0 1 0 1 1 2 1 2 4 4 3 2 1 5 5 4 11 17 17 17 19 18 16 15 14 13 11 11 10 9 9 8 8 10 14 15 16 18 18 17 15 13 11 10 9 9 9 10 10 11 11 11 12 12 13 12 12 12 12 12 11 11 11 11 12 12 13 14 14 15 16 17 18 19 20 21 23 23 24 24 24 25 25 25 25 24 24 23 22 21 21 21 19 19 18 17
3 2 2 2 2 2 3 1 1 2 3 4 4 2 6 4 1 4 9 12 14 15 15 13 12 14 13 11 11 11 10 9 8 9 13 16 16 17 18 19 18 17 15 13 10 9 8 8 8 8 9 10 10 10 10 10 10 10 10 10 10 10 10 10 11 11 12 13 13 14 15 16 17 19 21 22 23 24 25 25 25 26 26 26 26 26 25 25 24 23 23 22 21 19 17 17 16
Wind_Direction
331 336 341 342 335 333 340 61 64 319 84 157 274 217 253 235 249 303 289 291 65 278 271 79 69 77 100 126 150 148 124 136 153 139 199 232 139 154 162 167 166 160 159 157 156 155 152 151 145 144 143 142 141 135 134 134 134 132 131 134 137 138 138 134 136 150 149 123 122 134 143 148 141 139 134 126 127 130 126 110 95 90 87 80 71 68 58 53 54 48 36 28 25 15 8 2 4
333 338 341 343 343 360 313 83 86 322 47 304 278 181 256 299 315 242 230 232 180 200 105 91 78 73 60 91 113 96 57 31 131 153 120 134 137 153 163 165 164 159 158 157 156 153 152 153 145 144 142 142 143 137 136 136 136 136 136 140 141 140 140 143 148 149 134 122 121 125 129 134 140 140 137 130 123 119 115 104 92 84 80 75 66 64 55 49 43 29 16 9 4 355 355 350 340
335 339 344 350 357 43 38 42 96 37 66 247 273 230 259 302 235 232 222 221 187 167 107 61 68 67 35 55 45 60 47 352 93 58 104 133 139 155 162 160 161 159 157 157 156 153 154 154 147 144 140 146 149 143 143 140 138 139 141 141 141 139 145 147 139 134 123 116 111 114 118 118 123 125 125 117 106 102 102 96 89 79 68 57 47 45 35 29 16 6 356 354 354 350 351 347 337
336 342 346 5 27 31 59 41 144 132 171 222 277 261 243 219 240 254 243 237 207 149 47 40 52 360 60 73 15 82 52 333 100 83 128 144 149 155 157 156 160 157 156 159 157 156 156 154 148 144 141 149 155 150 148 146 143 142 142 139 139 143 152 138 118 123 115 114 109 110 113 114 115 113 112 106 100 99 101 96 83 67 53 46 42 29 13 9 359 353 346 350 355 349 347 345 341
333 344 353 47 84 13 91 77 113 132 209 194 224 266 240 220 248 278 270 275 247 169 131 88 70 307 72 85 50 101 346 328 109 132 133 147 154 151 154 155 157 154 156 159 159 159 157 153 148 146 145 148 157 153 146 148 145 141 143 142 142 145 151 129 111 113 107 111 111 111 111 115 120 114 113 108 104 100 102 94 65 53 55 60 50 33 25 20 6 356 348 348 349 339 333 331 333
336 2 35 66 107 140 115 161 176 203 228 171 190 262 230 225 268 303 295 309 303 137 163 106 129 155 70 17 89 100 262 252 15 154 142 146 154 149 153 156 154 154 158 160 161 161 155 153 150 147 147 149 154 150 144 144 141 140 144 146 147 143 142 128 113 107 101 104 103 108 108 117 125 119 120 118 108 93 90 77 58 58 62 59 41 33 32 21 14 7 4 8 3 1 336 307 312
346 17 44 63 53 54 121 200 210 227 242 179 196 248 224 240 277 321 319 323 9 33 79 120 145 121 82 326 96 35 1 220 181 157 151 147 153 149 153 156 153 155 160 161 162 159 154 154 150 148 148 149 148 144 141 138 137 142 143 146 147 138 129 120 110 106 101 97 94 94 94 108 118 116 123 121 109 90 82 72 60 57 54 39 28 31 23 17 22 16 14 24 21 18 352 329 331
352 34 52 91 69 6 119 222 231 203 245 220 218 248 256 282 265 304 295 186 230 312 98 140 113 94 60 29 100 354 14 66 159 154 154 147 151 150 154 157 154 156 162 163 160 158 157 154 151 152 149 144 143 140 138 136 139 143 136 133 131 122 112 107 104 101 96 89 84 80 84 94 94 102 116 118 112 97 83 81 74 50 44 32 26 29 19 17 16 13 14 15 8 1 344 339 342
17 81 79 111 171 293 198 253 245 211 254 257 250 259 273 280 235 236 243 261 271 164 144 185 107 104 144 42 44 308 17 85 142 147 151 148 152 152 155 159 156 158 163 165 159 158 158 156 155 154 147 141 143 141 142 144 143 141 135 121 110 105 100 97 94 89 87 77 70 66 73 86 85 84 85 96 101 98 78 67 66 37 36 22 15 17 15 13 359 5 6 356 352 352 344 336 337
22 38 138 123 133 219 253 240 229 229 248 251 254 260 268 264 201 214 229 274 195 144 165 163 77 108 123 60 337 318 35 123 133 138 146 148 151 152 155 159 157 159 165 164 158 159 156 155 157 151 145 143 143 141 146 151 149 144 139 120 102 100 97 94 90 86 80 59 53 50 39 37 49 60 54 62 62 59 38 34 24 7 3 353 356 353 5 3 350 360 355 350 354 355 349 337 333
81 359 126 140 178 212 237 233 235 238 258 282 277 256 245 225 159 220 223 234 150 128 189 100 91 121 93 69 302 347 144 139 133 138 145 148 151 152 153 156 157 160 165 161 157 159 154 155 158 150 146 146 141 138 140 145 148 143 133 119 104 100 95 91 87 80 66 45 39 35 23 338 318 330 356 4 16 16 8 7 357 351 348 346 347 330 343 342 344 357 347 345 349 344 340 330 329
153 228 110 161 200 203 216 229 246 250 282 292 276 272 218 150 130 229 213 187 161 136 231 197 146 136 85 73 119 114 143 141 139 142 147 149 148 150 151 154 158 163 164 159 157 156 153 155 155 149 148 147 140 138 135 134 140 136 128 119 109 102 93 86 73 58 45 37 29 25 24 357 331 323 325 338 350 351 342 337 337 337 337 340 338 325 329 328 337 349 342 337 337 333 331 323 323
178 169 122 176 197 175 192 224 251 241 276 262 238 301 359 113 146 240 200 133 130 154 250 220 150 108 91 117 105 122 138 142 143 144 149 148 146 145 146 148 155 163 160 155 156 155 155 155 152 152 152 148 143 142 139 138 138 134 131 124 115 107 101 89 66 51 36 31 24 17 20 12 345 328 324 337 345 346 339 329 327 322 321 325 325 323 321 313 318 327 327 326 321 320 322 318 317
267 194 146 192 192 161 185 216 235 204 250 254 217 317 345 42 309 243 156 122 126 176 273 215 135 93 102 138 125 162 151 147 145 145 147 147 147 144 142 140 148 161 156 152 155 157 159 156 154 157 157 151 148 149 147 146 143 139 138 134 128 120 120 112 82 58 32 22 18 13 16 21 358 332 317 323 330 334 331 320 318 316 314 312 309 308 303 298 300 307 310 312 312 312 311 306 303
260 241 123 166 191 183 200 208 199 206 242 222 143 331 76 41 335 61 122 140 137 219 312 35 93 10 171 166 174 178 157 149 146 145 142 142 145 144 144 140 146 159 155 154 158 161 161 157 156 159 160 155 152 153 154 154 150 145 145 146 154 151 144 142 119 64 17 360 7 13 15 15 353 315 300 306 313 317 314 307 306 307 307 307 307 306 300 297 297 301 304 307 308 308 308 306 305
135 52 72 178 204 201 208 194 171 201 243 203 286 6 107 22 26 62 316 159 110 21 21 14 342 338 170 174 152 148 150 146 144 143 137 136 139 142 148 146 150 157 154 156 160 163 160 157 157 161 163 161 160 157 157 162 161 158 159 162 174 183 189 201 193 284 328 352 4 2 4 2 335 301 295 298 300 299 298 299 301 302 307 313 319 318 312 306 306 308 310 314 314 313 313 313 314
73 128 197 209 209 199 195 178 176 196 237 284 330 4 125 42 11 48 325 66 89 40 37 23 351 16 100 109 126 136 142 140 140 138 130 130 133 139 147 150 154 152 151 154 160 164 158 158 160 161 165 167 165 161 160 165 168 168 172 173 177 198 211 232 237 303 337 7 20 10 12 12 354 319 304 296 290 292 293 299 306 312 322 330 334 333 328 322 319 320 320 321 322 321 319 317 316
173 200 209 218 210 200 187 170 186 170 129 333 348 3 116 109 342 320 16 32 59 61 45 46 50 58 89 107 121 131 136 135 135 129 123 126 129 132 137 144 150 147 144 143 155 164 158 160 163 164 168 170 166 164 164 163 167 165 164 162 157 184 185 173 62 42 31 42 52 46 39 34 35 32 16 1 341 336 337 344 351 349 345 340 337 335 332 329 325 324 322 321 321 319 316 315 316
195 187 213 225 212 197 190 167 178 134 123 83 31 27 66 72 293 326 55 21 40 68 54 56 76 82 95 108 118 125 129 129 130 125 121 127 129 124 125 135 143 138 132 131 148 158 158 159 163 170 167 167 165 164 165 163 170 173 175 167 129 177 209 152 79 68 72 73 74 59 38 33 46 52 46 38 29 29 30 18 9 359 347 345 344 337 331 327 326 323 322 322 321 321 318 317 317
190 194 222 234 226 209 213 171 157 137 128 90 47 57 56 23 312 316 111 82 47 70 70 50 85 104 108 110 116 121 123 126 128 126 124 125 123 120 121 128 130 125 127 131 141 152 161 161 167 176 166 164 165 162 161 162 171 184 193 178 117 22 264 189 105 118 124 87 311 332 350 337 328 335 357 22 21 13 5 4 1 353 340 338 343 340 336 331 329 329 327 325 322 321 320 319 319
177 206 223 239 232 221 230 169 145 132 120 100 64 70 64 33 12 25 125 103 41 31 5 331 100 107 106 102 102 104 101 95 88 88 88 79 73 78 81 86 89 92 116 119 118 141 163 168 177 184 177 173 172 170 167 164 172 189 202 165 113 32 332 308 267 243 219 274 291 331 351 331 318 316 311 316 323 308 306 314 319 321 318 322 323 324 328 327 325 324 323 322 324 325 323 322 320
259 229 223 248 243 229 253 168 154 142 115 105 89 71 63 55 33 31 72 89 36 329 328 352 65 69 71 70 67 73 69 57 53 54 53 53 52 53 56 63 72 75 87 84 79 102 144 169 182 194 200 192 182 186 179 171 175 190 199 148 113 35 11 11 346 324 319 306 309 328 334 330 329 329 332 329 317 312 318 313 308 307 308 315 315 315 317 319 320 319 318 318 320 324 325 326 323
270 243 223 237 228 257 277 179 173 157 120 117 113 110 85 74 52 40 57 62 17 349 9 51 57 52 59 58 53 59 56 49 50 47 45 49 49 51 54 58 62 67 73 71 68 79 106 141 163 189 198 194 188 191 191 185 178 180 185 157 130 72 32 20 6 353 347 347 341 331 321 321 326 331 330 330 325 327 333 326 320 315 311 310 309 312 314 318 321 319 319 318 317 318 321 325 324
273 258 237 234 230 288 287 215 189 148 123 131 118 108 81 76 68 49 53 43 17 22 43 57 58 54 57 55 47 50 49 48 51 47 51 55 54 56 58 59 61 66 70 69 66 71 84 92 94 162 168 176 191 200 207 198 172 145 169 169 120 55 24 27 22 19 17 14 8 357 347 334 329 324 313 315 321 328 331 329 327 323 321 318 311 308 311 317 322 323 322 320 317 313 312 318 322
259 259 259 246 237 258 300 278 194 140 123 127 105 95 85 91 90 61 53 42 29 43 44 45 59 54 52 53 44 42 43 41 42 43 50 54 59 62 60 60 61 63 67 66 64 69 75 77 81 100 123 135 149 166 168 137 120 72 75 83 69 64 68 68 60 55 52 42 34 25 17 5 350 338 333 333 329 332 335 332 333 333 333 330 322 315 314 317 320 323 324 322 321 316 311 314 317
259 274 277 274 252 231 302 328 188 150 141 128 104 109 114 116 101 59 49 57 41 56 50 34 54 52 43 50 44 41 42 37 33 34 43 48 53 56 54 54 57 60 62 63 67 70 72 76 82 87 99 107 107 105 98 98 101 86 83 85 83 84 84 84 80 72 67 61 58 56 56 51 40 29 28 29 16 5 359 356 357 355 356 350 340 333 327 324 320 317 317 319 319 317 314 314 315
315 321 297 282 272 240 249 331 198 152 145 140 118 123 135 136 114 85 57 65 49 57 52 34 49 53 41 46 45 42 43 37 29 27 36 40 42 44 43 45 51 56 58 62 68 70 72 78 80 82 91 101 104 101 97 96 95 91 91 91 90 88 88 86 80 75 71 67 64 62 63 61 57 49 43 42 39 34 26 21 14 7 11 10 359 350 340 335 330 323 320 321 321 320 319 317 317
300 304 301 275 267 248 229 274 227 151 129 141 117 110 112 77 83 108 117 75 71 63 55 40 46 52 42 44 45 43 43 37 32 30 34 36 32 33 37 38 46 54 56 60 67 73 76 80 82 83 88 95 99 96 94 95 94 92 91 90 88 87 88 85 80 76 71 68 66 64 64 64 62 58 53 51 52 53 46 38 26 21 28 26 20 12 358 349 344 337 332 332 332 332 329 325 323
289 284 286 245 241 246 210 222 254 169 156 148 116 92 46 72 87 103 109 84 78 68 58 48 46 48 44 42 45 45 42 37 37 35 31 35 35 36 42 43 49 57 57 60 68 78 80 81 83 84 88 93 95 94 93 92 91 92 90 86 84 85 85 83 79 75 71 69 68 67 66 65 64 61 58 56 55 54 52 49 41 39 40 36 34 29 20 12 5 3 358 353 349 345 340 339 337
275 268 255 223 232 242 200 195 241 285 167 161 133 128 60 73 84 80 31 352 74 68 55 54 47 44 46 43 49 46 40 37 37 36 28 32 38 38 47 51 56 60 62 65 70 76 78 80 84 84 87 93 94 93 93 90 89 90 90 86 82 82 82 79 77 73 70 68 67 65 62 61 60 58 55 54 52 49 47 47 43 41 38 37 35 28 25 23 21 20 12 5 2 357 354 355 353
267 261 241 209 217 215 192 186 198 235 187 188 159 139 71 58 53 35 6 342 76 78 56 56 49 40 48 43 50 49 45 41 34 32 28 28 33 37 48 54 60 63 66 69 70 75 77 80 85 83 82 89 92 91 91 90 88 86 86 84 80 79 79 77 74 70 69 67 65 63 61 59 58 56 53 51 49 47 45 44 42 40 38 36 33 28 24 23 25 24 18 14 11 9 7 4 1
244 247 217 193 212 199 188 189 180 189 131 2 359 135 79 42 35 29 15 346 73 85 65 59 52 41 51 46 49 53 52 46 37 33 30 26 27 36 48 54 60 64 67 71 74 76 79 81 85 85 83 84 86 86 88 90 89 84 83 82 79 78 76 75 71 68 67 66 64 62 60 60 59 57 56 53 51 49 47 46 43 41 39 36 33 30 27 25 24 22 22 20 16 16 12 6 3
229 235 211 189 200 187 182 189 185 191 86 16 47 124 104 46 39 33 23 357 64 86 73 65 57 44 53 50 48 55 56 47 36 30 27 25 26 37 47 52 60 65 67 72 76 75 77 81 83 85 85 85 84 83 84 87 88 85 83 82 79 76 75 72 69 67 66 64 62 60 58 59 58 57 56 54 53 51 49 47 43 41 39 37 34 32 30 28 24 20 20 20 20 19 13 7 2
223 225 239 206 191 184 178 167 159 128 94 65 73 94 91 67 55 44 30 6 53 80 77 72 64 53 52 52 53 56 58 51 36 26 22 25 28 35 46 52 60 66 68 71 75 74 75 77 79 83 84 85 85 84 82 82 83 83 83 82 80 76 73 71 68 66 65 62 60 58 57 58 57 56 55 54 53 51 50 46 43 41 38 37 35 33 31 28 25 22 19 18 22 22 15 8 1
225 221 233 235 186 184 182 152 114 88 91 85 83 85 78 69 57 53 40 11 51 75 77 76 69 60 49 49 56 54 56 54 42 32 27 29 30 33 42 49 57 63 66 68 72 75 76 76 78 81 82 82 83 84 83 81 80 80 79 79 78 74 71 69 67 65 63 61 59 57 55 55 55 55 53 52 52 50 49 46 43 40 38 36 34 32 29 26 23 21 19 17 19 23 19 11 4
337 290 246 242 192 184 160 119 112 98 84 58 80 92 77 65 46 42 37 11 54 73 74 74 72 66 49 44 53 53 55 54 49 43 37 30 27 35 43 47 54 61 63 64 68 71 72 75 77 78 78 80 82 81 81 81 80 77 75 74 73 70 68 68 66 63 61 59 58 56 53 51 51 53 51 49 49 48 47 45 43 41 38 36 34 32 29 25 22 20 19 16 14 16 17 13 9
335 324 276 244 212 180 109 120 133 103 84 42 71 89 75 65 49 29 18 13 43 60 67 69 71 72 60 53 58 60 59 55 53 50 44 36 31 35 42 49 55 60 61 60 63 65 66 70 73 73 73 78 80 78 77 77 76 74 72 71 69 67 67 66 63 60 58 56 55 54 53 50 48 49 49 47 46 45 44 42 40 39 36 36 35 32 30 27 25 22 19 16 15 13 12 12 9
290 293 273 252 221 122 100 126 153 100 98 101 87 82 68 59 58 33 21 31 35 42 59 64 67 73 67 63 65 64 62 52 49 48 43 39 37 35 40 49 53 54 57 59 60 63 65 67 70 70 70 75 76 76 77 77 76 76 76 73 70 67 65 64 62 59 57 55 54 53 52 50 48 47 48 47 45 43 43 40 37 36 33 32 32 31 30 29 26 25 22 17 15 14 12 11 10
240 269 261 250 183 113 93 58 54 89 102 141 143 85 73 61 61 48 34 39 33 32 48 56 62 69 63 62 61 58 59 50 46 46 42 39 39 40 43 48 50 52 56 60 62 63 64 65 67 69 70 74 75 77 79 79 79 80 80 77 73 69 65 63 62 60 59 56 53 52 50 49 47 46 46 47 46 43 43 41 38 36 32 29 29 29 29 28 26 27 26 19 12 11 13 12 14
185 255 270 204 189 147 112 38 30 54 101 143 132 90 87 80 65 58 45 41 35 31 40 46 49 62 66 65 59 56 58 53 48 47 44 42 43 44 46 47 49 53 55 57 59 61 62 63 65 69 71 73 75 78 81 83 84 83 81 77 74 72 67 63 62 59 57 55 52 49 48 47 47 46 45 46 46 43 42 42 39 39 35 30 30 29 28 27 26 26 26 23 15 9 7 7 12
187 229 267 214 189 135 103 121 94 66 95 138 121 88 75 70 66 66 49 42 42 32 40 46 36 42 59 66 65 61 58 56 53 51 46 46 46 46 48 50 51 53 54 55 57 59 63 65 66 68 71 73 75 77 80 84 86 84 81 75 70 66 59 54 52 49 49 50 49 47 46 46 46 45 44 45 45 43 42 41 40 39 37 33 31 31 30 28 28 28 25 23 19 12 4 1 7
224 220 245 221 144 115 116 125 113 90 135 185 140 105 81 68 81 87 69 59 53 37 46 55 41 34 42 52 59 58 59 59 58 59 53 50 51 51 51 52 53 53 54 56 59 62 67 69 69 68 68 71 73 74 76 79 80 77 74 68 63 57 51 47 44 42 43 45 46 46 45 45 45 45 44 44 44 43 42 40 39 39 37 34 32 31 30 29 28 28 26 21 18 17 10 3 3
265 227 216 180 133 134 140 134 123 116 151 204 229 153 142 128 116 128 131 102 81 64 62 64 56 49 49 51 55 54 54 54 57 59 55 53 52 52 53 53 53 53 56 60 62 65 68 70 71 69 68 68 69 72 73 74 75 73 72 68 64 61 57 52 50 48 47 47 48 47 46 45 44 45 43 43 43 42 41 39 38 38 37 34 32 31 29 28 27 27 29 24 17 19 16 8 2
257 58 156 154 140 148 158 139 126 129 119 101 339 101 122 146 144 155 154 123 111 110 96 88 85 80 79 79 76 74 67 57 58 56 54 55 53 54 58 57 58 59 60 62 63 66 68 70 72 72 71 70 70 72 73 73 74 74 75 73 69 66 64 60 56 54 51 50 50 48 47 46 45 45 44 43 43 42 41 39 38 37 37 34 32 31 28 26 27 27 29 24 20 22 17 10 5
231 116 167 162 148 157 176 130 112 133 133 113 346 57 99 119 128 152 164 154 170 173 152 135 124 119 112 106 102 95 89 80 75 72 65 63 61 61 63 63 64 63 62 64 68 71 72 72 74 73 72 71 70 71 73 73 73 74 74 73 70 67 64 62 58 55 53 51 50 48 46 46 45 45 44 43 43 43 41 40 38 37 36 34 31 29 27 27 27 26 26 23 20 22 17 12 10
164 129 198 147 119 149 184 122 117 136 147 132 326 2 105 158 183 168 184 204 200 183 163 151 145 146 143 132 127 118 112 103 92 91 82 72 68 66 67 68 65 62 65 70 72 73 74 74 74 73 71 70 69 70 71 72 72 71 71 70 69 65 62 60 57 54 51 49 49 47 44 44 43 43 43 43 43 42 42 40 38 37 35 34 32 29 27 26 26 26 26 22 21 20 17 17 17
91 92 193 59 51 6 18 58 97 114 143 114 38 341 78 137 220 191 195 197 169 164 161 160 159 162 163 158 152 146 136 127 113 100 88 78 75 73 73 73 72 71 72 74 74 72 74 74 74 74 72 71 70 70 70 71 71 71 70 68 66 63 61 58 56 52 49 47 46 44 43 42 42 42 41 41 41 40 40 39 38 37 35 34 31 29 26 25 25 25 23 22 21 21 18 19 20
97 69 203 107 69 22 41 1 37 98 140 86 62 306 70 111 214 203 203 166 151 161 165 166 171 177 177 172 162 153 138 132 127 115 107 102 97 90 83 78 77 77 75 75 75 74 76 77 76 75 73 72 71 70 70 71 70 70 70 68 65 62 60 58 56 52 48 47 45 43 42 42 41 41 40 39 39 37 37 37 35 34 33 32 29 27 26 24 23 22 21 21 20 20 19 19 18
111 60 198 143 108 123 111 39 71 99 39 25 359 306 69 206 258 213 197 173 165 173 171 170 173 176 177 170 154 146 141 148 151 145 144 139 132 123 106 92 83 78 76 77 77 76 77 78 78 77 75 73 73 71 71 70 69 69 68 67 65 62 60 59 57 55 51 49 47 44 42 41 40 39 38 38 37 36 36 34 33 32 31 30 27 26 24 22 22 20 20 19 18 18 17 18 15
159 144 200 167 118 146 150 121 101 95 61 356 316 11 69 252 316 297 199 174 171 173 167 170 171 169 166 156 148 150 157 164 165 161 161 158 150 141 126 108 92 84 84 82 78 76 76 77 78 79 77 75 73 71 71 69 68 68 67 67 66 63 61 59 58 56 54 52 50 47 45 43 42 39 38 38 36 36 36 34 33 32 30 29 26 24 23 21 20 20 18 17 17 17 15 14 7
187 168 176 159 112 148 149 152 168 124 107 80 333 346 159 200 339 334 358 134 142 146 145 153 157 156 149 145 152 160 166 169 170 171 169 163 154 143 133 120 105 99 95 89 82 77 77 78 78 79 79 76 73 72 70 69 69 68 67 66 65 64 63 61 60 57 55 53 51 49 47 43 42 40 38 36 34 34 33 32 31 29 28 27 24 22 20 19 18 17 16 16 15 14 11 8 1
259 253 112 96 150 136 116 156 143 98 95 89 35 279 201 135 195 306 88 108 127 136 143 153 155 155 154 158 167 167 169 175 175 176 171 161 152 144 137 129 119 112 107 100 90 81 80 83 82 81 80 77 75 73 72 71 70 68 66 65 64 64 63 61 59 56 53 52 49 47 45 42 41 39 36 34 32 31 30 29 27 27 26 23 22 21 18 16 15 14 13 11 10 9 5 1 358
186 187 228 231 177 129 114 121 72 83 100 102 86 132 359 44 190 168 141 143 156 157 163 170 168 166 168 174 178 174 175 181 181 178 170 160 153 149 145 140 131 123 117 110 100 88 83 84 85 84 82 80 78 76 74 73 71 69 66 64 62 60 59 58 56 55 53 50 48 46 44 41 39 36 33 31 29 27 26 24 23 22 22 20 19 19 17 16 14 13 12 9 7 5 1 0 1
120 205 203 168 97 83 96 92 52 81 133 159 12 277 272 262 203 160 165 180 187 183 180 179 177 176 180 182 180 179 183 185 181 172 166 160 153 150 150 145 138 130 124 116 108 95 84 81 83 84 82 81 78 75 74 71 69 68 66 64 61 59 58 57 54 52 50 47 45 43 40 37 34 32 29 26 24 23 21 20 19 18 17 16 15 15 14 14 11 11 10 9 7 5 2 3 5
86 251 210 105 91 72 86 122 135 124 130 254 314 330 222 215 202 175 188 196 193 188 186 186 187 185 183 183 182 183 186 183 178 170 165 161 156 152 151 149 143 138 131 121 114 102 86 79 79 82 82 81 79 75 73 70 67 66 65 62 59 57 54 52 50 47 43 42 41 38 36 33 30 28 26 23 21 20 18 17 16 14 13 12 11 11 10 9 8 7 5 4 5 3 1 1 1
39 358 344 28 102 146 138 130 135 129 129 178 337 355 253 226 195 186 198 197 187 185 189 191 190 185 183 183 182 185 186 181 177 172 164 160 158 156 156 154 150 145 139 130 122 111 93 82 79 84 86 84 81 76 73 71 69 66 65 63 60 56 52 49 47 44 41 41 39 35 34 31 28 26 23 21 20 18 16 14 12 10 8 7 6 6 6 6 5 3 2 0 0 1 1 358 353
57 120 266 337 59 126 147 82 78 120 135 162 142 283 256 242 185 190 198 195 187 186 186 187 185 182 183 184 183 186 186 181 176 169 162 160 159 158 159 159 155 150 146 141 133 122 109 93 85 88 90 87 83 79 75 73 72 70 69 67 65 61 57 51 46 43 41 40 38 35 33 30 27 24 21 19 18 15 13 10 8 7 5 3 3 3 3 3 2 1 1 359 360 1 358 353 346
160 177 222 169 134 139 124 86 320 113 125 163 152 202 257 272 356 216 197 184 185 185 181 181 183 181 181 185 186 187 184 178 173 165 160 159 160 160 161 161 159 157 154 151 146 137 127 109 96 96 96 92 88 83 80 77 75 73 70 68 65 60 54 48 43 40 38 37 35 33 30 27 24 22 19 16 14 11 9 7 5 4 2 1 1 1 2 1 360 359 358 358 0 358 351 345 341
Height
804 804 803 803 801 801 802 803 816 823 824 832 832 827 817 811 812 809 804 801 801 800 798 798 797 798 800 801 802 806 808 808 811 817 818 811 809 811 813 814 816 817 819 821 824 826 827 829 830 832 833 834 835 836 837 839 840 841 842 842 843 844 845 845 846 847 848 848 849 849 850 850 851 852 852 853 853 854 854 855 856 856 857 858 858 859 859 859 859 859 859 859 860 860 860 860 860
804 804 803 803 801 802 806 808 823 832 829 834 832 825 816 812 813 807 803 801 801 800 798 798 798 800 801 800 800 804 808 809 809 810 810 809 810 812 814 815 816 818 820 822 824 826 828 829 831 832 834 835 836 837 838 840 840 841 842 843 844 844 846 846 847 848 848 849 849 850 850 851 852 853 853 854 854 855 855 856 857 857 858 858 859 860 860 860 860 860 860 860 860 860 860 860 860
804 804 803 802 802 803 809 811 825 837 834 833 826 820 815 811 807 803 801 800 800 799 798 798 798 801 802 802 803 806 809 810 809 809 810 810 811 813 814 815 817 820 821 823 825 827 828 830 831 833 834 836 837 838 839 840 841 842 842 843 844 845 846 847 848 848 849 849 850 851 851 852 853 853 854 855 855 856 856 857 858 858 859 860 860 861 861 861 861 861 861 861 861 861 860 860 860
805 804 803 802 805 807 813 819 827 833 834 835 825 814 811 807 803 802 800 799 799 798 798 799 801 803 802 805 807 809 812 810 809 809 810 811 812 813 815 816 818 821 823 825 826 828 829 831 832 834 835 836 837 838 839 841 842 842 843 844 845 846 847 848 848 849 850 850 851 851 852 853 853 854 855 856 856 857 857 858 859 859 860 861 861 861 861 861 861 861 861 861 861 861 861 860 860
805 804 804 803 809 812 818 828 833 832 829 829 821 809 807 805 802 801 799 799 799 799 799 799 804 804 803 807 809 812 814 812 810 809 810 811 812 814 816 817 819 822 824 826 827 829 830 832 833 834 836 837 838 839 840 841 843 843 844 845 846 846 847 848 849 850 850 851 852 852 853 854 854 855 856 857 857 858 858 859 859 860 860 861 862 862 862 861 861 861 861 861 861 861 861 861 860
804 804 804 803 809 812 820 831 833 831 821 818 815 805 805 805 803 801 798 798 798 799 798 799 803 804 807 809 809 812 813 812 810 809 810 811 813 815 817 818 821 823 824 826 828 830 831 833 834 835 836 837 838 839 841 842 843 844 845 846 846 847 848 849 849 850 851 852 852 853 853 854 855 856 856 857 858 858 858 859 859 860 860 861 862 862 862 862 862 861 861 861 861 861 861 861 860
804 805 806 808 812 814 825 830 828 828 818 815 812 802 803 804 804 801 799 799 798 799 798 800 800 802 810 811 810 811 810 810 810 810 810 811 813 815 818 819 821 823 825 827 828 830 832 834 835 836 837 838 839 840 841 843 844 845 846 847 847 848 849 849 850 851 852 852 853 854 854 855 856 856 857 857 858 859 859 859 859 860 861 861 862 862 862 862 862 862 862 861 861 861 861 861 861
805 807 809 813 819 822 830 830 827 827 817 813 810 803 802 803 803 802 801 801 800 800 800 801 800 804 811 811 813 813 809 809 809 810 811 812 814 816 818 820 822 824 826 827 829 831 833 834 836 837 838 839 840 841 842 844 846 846 847 848 848 849 850 851 851 852 852 853 854 854 855 855 856 857 857 858 858 859 859 860 860 860 861 862 862 862 862 862 862 862 862 862 862 862 861 861 861
805 808 811 816 824 827 831 829 825 824 816 811 809 803 802 802 803 802 801 801 801 801 801 802 799 804 812 813 814 813 810 810 809 811 812 813 815 817 819 820 822 824 826 828 830 832 833 835 836 837 839 840 841 842 844 845 846 847 848 849 850 851 851 852 853 853 854 854 855 855 856 856 857 857 858 858 859 859 860 860 860 861 861 862 862 862 862 862 862 863 862 862 862 862 862 862 861
806 808 812 819 827 830 832 829 824 821 813 808 806 802 800 801 802 801 801 800 800 802 802 801 801 806 812 816 817 813 812 812 811 812 813 814 816 817 819 821 822 824 827 829 830 832 834 836 837 838 839 841 842 843 844 845 847 848 849 850 851 852 853 853 854 854 855 855 856 856 856 857 857 858 858 859 859 860 860 860 861 861 861 862 862 862 862 862 862 862 862 862 862 862 862 862 862
810 811 812 821 830 832 832 828 822 817 810 807 804 799 798 799 800 801 800 800 800 802 802 801 805 809 814 819 818 814 813 813 813 813 814 815 817 818 820 822 823 825 827 828 830 833 835 837 838 839 841 842 843 844 845 846 848 849 850 851 852 853 854 854 855 855 856 856 856 857 857 857 858 858 858 859 859 860 860 860 861 861 861 862 862 862 862 863 862 862 862 862 862 862 862 862 862
814 814 814 823 829 829 828 825 821 815 809 807 803 797 796 798 799 799 799 800 800 802 802 800 803 806 816 822 817 814 814 814 814 814 815 816 818 819 821 823 824 826 827 829 831 833 835 837 839 840 842 843 844 845 846 847 849 850 851 852 853 853 854 855 855 856 856 857 857 857 857 857 858 858 859 859 859 860 860 860 861 861 861 862 862 862 862 863 862 862 862 862 862 862 862 862 861
815 815 816 822 823 823 824 823 819 816 812 805 800 797 796 797 798 798 798 799 800 803 801 799 800 802 815 821 815 815 814 815 816 815 816 817 819 820 822 823 825 826 828 829 832 834 836 838 839 841 842 844 845 846 847 848 849 851 852 852 853 854 855 855 856 856 857 857 857 857 857 858 858 858 859 859 860 860 860 861 861 861 861 861 862 862 862 862 862 862 862 862 862 861 861 861 861
815 814 814 820 822 820 820 821 818 819 813 801 799 798 796 798 798 798 798 800 802 803 800 798 800 803 813 819 817 816 814 815 816 816 818 818 819 821 823 824 826 827 829 830 832 834 836 838 840 841 843 844 846 847 848 849 850 851 852 853 854 855 855 856 857 857 858 858 858 858 858 858 858 859 859 859 860 860 860 861 861 861 861 861 861 861 861 861 862 861 861 861 861 861 860 860 860
815 814 814 818 821 819 817 817 816 819 811 799 800 798 796 799 799 799 798 800 802 801 800 799 800 803 808 813 815 814 813 815 816 817 818 820 821 822 823 825 827 828 830 832 833 835 837 839 840 842 843 845 846 847 848 849 850 851 852 853 854 855 856 857 857 858 858 858 858 858 858 858 859 859 859 860 860 860 860 860 861 860 861 861 861 861 861 861 861 860 860 860 860 860 859 859 859
815 816 816 818 820 820 817 814 814 817 809 799 800 798 797 800 798 800 799 799 801 801 802 803 802 803 804 806 808 809 812 814 816 818 819 821 822 823 825 826 827 829 831 833 834 836 837 839 841 842 844 845 846 847 849 850 851 852 853 854 854 855 856 857 857 858 858 858 859 859 859 859 859 860 860 860 860 860 860 860 860 860 860 860 860 860 860 860 860 860 860 859 859 859 859 858 858
815 817 820 819 818 817 813 811 812 811 805 799 800 798 798 801 799 800 800 799 803 805 807 807 805 804 805 805 806 808 812 814 816 818 820 822 823 824 826 827 828 830 832 833 835 836 838 840 841 843 844 845 847 848 849 850 851 852 853 854 854 855 856 857 858 858 858 858 859 859 859 859 860 860 860 860 860 860 860 860 860 860 860 860 860 860 859 859 859 859 859 859 858 858 858 857 857
816 818 820 818 814 811 806 804 804 801 801 801 802 800 798 802 803 800 801 804 806 809 809 809 807 806 806 807 808 811 814 815 817 819 820 822 824 825 826 828 829 830 832 834 835 837 838 840 841 843 845 846 847 848 849 850 851 851 852 853 854 855 855 857 858 858 859 859 859 859 859 860 860 860 860 860 860 860 860 860 860 860 860 860 860 859 859 859 859 859 858 858 858 857 857 857 856
815 816 817 813 807 804 798 796 798 797 801 803 803 804 802 805 806 801 805 811 809 811 813 811 811 810 809 809 811 814 815 817 818 820 822 823 824 826 827 829 830 831 832 834 836 837 839 841 842 844 845 846 847 848 849 850 851 851 852 853 854 854 855 856 857 858 858 858 859 859 859 860 860 860 860 860 860 860 860 860 860 860 860 859 859 859 859 859 858 858 858 857 857 856 856 856 855
813 814 816 810 802 801 796 794 797 797 799 802 805 805 806 810 808 803 808 815 814 815 817 816 816 815 813 812 813 815 817 819 820 821 822 824 825 827 829 830 831 832 833 835 837 838 840 841 842 844 844 846 847 848 849 849 850 851 852 853 854 854 855 856 856 857 857 858 858 859 859 859 860 860 860 860 860 860 860 860 860 860 859 859 859 859 858 858 857 857 857 856 856 856 855 855 854
812 811 813 806 802 802 797 795 797 797 797 801 805 805 809 811 809 808 807 813 819 820 820 819 817 816 815 815 815 817 819 821 822 824 825 826 827 828 830 831 832 833 834 836 838 839 840 842 843 843 844 845 846 847 848 849 850 851 852 853 854 854 855 856 856 856 856 857 857 858 859 859 860 860 860 860 860 860 860 860 860 859 859 859 858 858 858 857 857 856 856 855 855 855 854 854 853
813 809 807 804 804 803 799 797 797 797 796 798 804 807 811 813 816 817 813 818 827 828 824 819 817 817 818 819 820 821 823 825 826 828 829 829 829 830 831 833 833 834 834 836 838 839 840 841 843 843 844 845 846 847 848 849 850 851 852 853 854 854 855 855 855 855 856 857 857 857 858 858 859 859 859 860 859 860 860 859 859 859 859 858 858 858 857 857 856 856 855 854 854 853 853 852 852
816 809 804 804 804 804 801 798 798 796 795 798 803 807 811 817 825 826 824 830 834 832 827 822 821 822 822 822 825 827 828 830 831 832 833 831 833 834 835 835 835 835 836 837 838 839 839 840 841 842 844 845 846 848 848 849 850 851 852 853 854 854 855 855 855 855 856 856 856 856 857 857 858 859 859 859 859 859 859 859 859 859 858 858 858 857 856 856 855 855 854 854 853 852 852 851 850
819 812 805 804 803 804 802 800 799 796 795 799 801 805 810 818 828 830 832 837 835 833 829 825 826 825 824 826 829 832 834 835 835 836 835 835 837 837 838 837 837 837 837 837 839 839 840 840 840 842 843 844 846 847 849 849 850 851 852 853 853 854 854 855 854 854 855 855 855 855 856 857 857 858 858 858 858 858 858 858 858 858 857 857 857 856 856 855 855 854 853 853 852 851 851 850 849
818 815 807 804 803 803 803 801 800 798 799 800 801 807 814 819 828 835 839 839 837 834 830 828 827 828 829 830 834 836 839 840 839 839 838 839 840 839 839 839 839 838 837 839 840 840 841 841 841 841 842 844 845 847 848 849 850 851 852 852 853 853 853 854 854 854 855 855 855 855 856 856 857 857 858 857 857 857 857 857 857 856 856 856 855 855 855 855 854 853 853 852 851 850 849 849 848
816 815 809 807 805 803 804 803 801 801 801 800 804 813 818 818 826 840 844 840 840 834 831 833 829 831 835 835 839 842 843 843 843 843 843 842 841 840 841 842 841 839 840 842 841 842 842 843 842 842 843 844 845 846 847 848 849 850 851 852 853 853 854 854 854 855 855 855 855 856 856 856 857 857 857 857 857 857 857 856 856 856 855 855 854 854 854 853 853 852 852 851 850 849 848 848 847
815 816 812 808 806 804 804 805 803 802 802 801 806 816 818 814 820 840 847 841 840 836 835 838 834 837 842 841 845 845 845 846 847 848 846 844 843 843 845 844 843 843 844 843 841 844 843 842 843 843 844 845 845 846 847 848 849 850 852 852 853 854 854 855 855 855 856 856 857 857 856 856 857 857 856 856 856 857 857 857 856 856 855 855 854 853 853 852 852 851 851 849 849 848 847 847 846
817 817 815 809 807 806 805 806 804 802 805 803 804 813 816 814 823 841 848 844 841 839 842 843 842 845 847 848 849 847 849 851 852 851 849 848 848 848 848 847 846 846 846 845 844 844 843 842 844 845 845 845 845 846 848 849 850 851 852 853 854 855 855 855 856 856 856 857 858 857 857 857 857 857 857 857 857 857 857 857 856 856 855 855 854 853 852 852 851 851 850 849 848 847 846 846 845
817 817 816 810 808 807 805 807 805 802 805 802 801 814 820 822 836 847 849 848 841 840 847 849 849 852 853 853 852 851 854 856 855 855 855 856 855 853 851 850 849 848 848 848 846 844 843 845 846 846 846 846 846 847 849 851 852 852 853 855 856 856 856 856 857 857 858 858 858 858 858 858 858 858 858 858 858 857 857 856 856 856 856 855 854 853 852 851 851 850 849 848 847 846 845 844 843
818 817 816 813 811 808 804 804 806 804 803 799 798 817 833 837 847 850 850 849 841 843 852 854 856 857 857 856 855 857 858 859 859 860 861 860 859 857 854 852 851 850 850 849 847 845 847 847 847 848 848 847 847 849 851 852 853 854 855 857 857 857 857 857 858 859 859 859 859 859 859 859 858 858 858 859 858 857 856 856 856 857 856 855 854 853 852 852 851 850 848 847 846 845 845 844 842
818 816 813 813 812 807 801 800 806 806 803 799 799 823 847 850 852 852 853 852 843 849 858 857 860 861 860 859 860 862 862 862 864 865 864 863 863 860 856 854 853 852 851 849 849 849 849 849 849 850 851 848 849 851 853 853 854 856 857 858 858 858 859 859 860 861 861 861 861 860 860 860 859 859 859 859 858 857 857 857 857 857 857 856 855 853 853 852 851 850 849 847 846 845 844 843 842
818 817 810 809 810 805 801 800 804 805 804 803 804 831 858 858 859 857 857 858 849 852 862 861 864 865 863 864 865 866 865 866 868 868 867 866 865 862 858 857 856 854 853 852 852 852 851 851 852 853 852 850 851 853 855 854 856 858 858 859 860 860 860 861 862 863 862 862 862 862 862 861 861 861 861 860 860 859 859 859 859 858 857 856 855 854 853 852 851 851 850 849 847 846 844 843 842
818 816 808 804 806 806 804 800 801 802 808 813 810 832 859 863 865 863 861 864 856 854 864 865 867 870 867 868 871 869 867 868 869 870 870 870 868 864 861 859 857 856 855 854 854 854 854 854 854 853 852 852 854 856 856 857 858 859 860 860 861 861 861 862 864 864 863 864 864 864 864 863 863 863 862 862 861 861 860 860 860 859 858 857 856 855 854 853 852 852 851 850 849 847 845 843 841
817 816 811 803 801 804 802 799 804 807 815 828 828 841 863 868 868 867 866 868 862 859 865 868 869 871 872 874 875 871 869 870 872 875 875 873 870 867 864 860 859 858 857 856 855 855 855 854 854 853 854 855 856 858 858 859 860 860 861 861 862 862 863 864 865 865 864 865 865 866 866 865 865 864 864 863 863 862 861 861 861 860 859 858 857 855 855 854 853 852 851 851 850 848 847 844 842
814 814 813 804 798 800 799 800 811 815 824 837 839 853 869 870 870 870 871 872 867 865 867 870 872 874 878 879 876 871 872 874 876 879 877 874 873 871 867 862 861 860 858 858 857 856 856 855 856 855 856 858 858 859 859 860 861 861 863 863 863 864 865 866 866 865 866 867 867 868 868 867 866 865 865 864 864 863 862 862 861 860 860 858 857 856 855 854 853 853 852 851 850 849 848 846 843
819 817 812 806 799 798 800 807 816 818 832 849 847 858 872 872 875 875 875 876 870 868 870 871 874 879 883 880 876 875 877 877 879 879 876 877 878 873 868 865 864 862 860 860 858 857 857 857 858 858 859 860 860 861 861 862 862 864 865 865 865 866 867 867 867 867 868 868 869 870 869 869 868 867 866 865 864 864 863 863 862 861 861 859 858 856 856 855 854 853 851 850 849 848 848 845 842
825 823 815 807 800 805 812 818 819 811 831 863 861 862 874 875 881 881 879 879 873 871 873 874 877 880 883 881 879 881 882 881 879 877 878 880 879 874 870 868 866 864 862 862 861 860 860 861 860 861 863 863 862 863 863 864 865 866 867 867 868 869 869 868 868 869 870 871 871 871 870 870 870 868 867 866 865 865 865 864 863 862 861 860 860 859 858 857 856 854 852 851 850 848 847 845 843
825 825 818 811 807 814 822 821 818 808 827 865 867 865 878 880 883 885 883 882 880 879 877 877 879 881 883 883 882 883 882 881 878 877 879 880 879 876 873 870 868 866 865 864 864 864 865 865 864 865 866 865 864 865 865 866 867 868 869 870 871 871 871 870 871 872 872 873 873 872 872 871 871 869 868 867 866 866 865 865 864 864 863 863 862 861 860 858 856 854 853 852 852 852 851 850 847
824 825 817 814 814 817 823 823 820 813 827 860 866 866 882 885 884 887 886 887 886 884 882 881 882 882 884 883 882 882 881 881 881 880 881 881 881 879 875 873 872 871 869 868 868 868 868 868 868 868 868 866 867 867 867 868 869 870 871 872 872 872 873 873 874 874 874 874 874 873 873 873 872 871 870 868 867 867 866 866 866 865 865 864 863 862 860 858 857 856 854 854 853 853 853 853 851
822 825 816 812 813 809 813 825 826 819 827 850 858 865 880 884 886 889 888 889 889 887 885 883 884 884 884 883 882 883 883 883 884 883 884 884 883 881 878 878 877 875 873 872 871 871 871 872 872 871 869 869 869 869 870 870 871 872 872 873 873 873 875 876 875 875 874 874 875 875 875 874 874 873 871 870 869 868 867 867 867 866 866 865 864 863 862 860 859 858 857 857 855 854 854 854 854
819 822 817 811 811 805 810 823 828 830 837 839 838 851 874 883 886 891 890 889 889 889 887 886 887 887 884 884 883 884 885 886 886 886 887 886 885 883 882 881 880 879 877 876 874 873 874 875 874 873 872 872 872 872 872 872 872 873 873 873 873 873 873 874 873 873 875 875 876 877 876 876 875 874 873 871 870 870 869 868 868 867 867 866 865 864 864 863 862 861 860 859 859 858 857 856 855
815 815 813 811 812 811 817 819 820 835 844 834 819 827 862 885 887 891 892 891 891 890 889 889 889 888 886 885 885 886 887 888 888 888 888 888 888 886 885 884 883 883 882 880 878 877 877 877 877 877 876 875 875 874 874 873 873 872 872 872 872 872 873 874 875 877 878 878 878 879 878 877 876 875 874 872 871 871 870 870 869 868 868 867 867 866 866 865 864 863 862 862 861 861 860 858 856
815 807 802 808 813 815 816 808 809 825 829 827 819 816 847 880 886 890 893 891 893 890 889 890 890 889 889 888 888 889 889 889 888 889 889 889 889 888 887 887 886 885 884 882 880 880 880 879 879 879 878 878 877 876 875 873 872 872 872 873 874 876 877 879 881 881 881 881 881 880 879 878 877 876 875 874 873 872 872 871 870 869 869 869 868 867 867 866 865 864 864 864 863 863 862 860 858
812 804 801 808 811 812 808 798 802 814 814 820 823 816 834 864 880 889 892 891 892 891 889 890 891 891 891 891 891 891 891 891 890 890 891 891 891 891 890 889 888 887 886 884 883 882 883 882 881 881 880 879 878 877 875 874 874 874 874 876 877 879 880 882 882 882 882 882 882 881 880 879 878 877 876 875 874 873 873 872 871 870 870 870 869 868 868 867 866 866 865 865 864 864 863 862 861
806 803 806 805 803 806 806 801 803 809 809 816 822 817 822 851 880 889 888 891 891 891 890 890 891 892 892 892 892 892 892 892 892 892 893 893 893 892 892 890 889 889 888 887 886 885 885 885 883 883 882 880 880 878 877 876 876 877 877 877 878 880 882 882 883 883 883 883 882 882 881 881 880 879 878 877 876 875 874 873 872 871 871 870 870 870 869 868 868 866 866 865 864 864 864 864 863
803 806 811 805 801 804 805 803 804 805 806 812 822 820 813 838 878 888 884 886 885 886 889 888 891 892 892 893 891 892 893 892 894 894 894 894 894 893 893 892 891 891 890 888 888 887 887 887 885 884 883 882 882 880 879 878 878 878 878 879 880 881 882 883 883 883 883 883 883 882 882 882 881 880 879 878 877 876 875 874 873 872 872 872 871 871 870 869 868 867 867 866 865 865 864 864 864
803 810 813 806 804 804 800 801 801 801 808 816 826 827 813 819 856 877 873 869 870 879 887 887 890 891 891 892 891 892 892 893 894 894 894 893 894 895 894 894 893 892 891 890 889 889 888 888 887 885 885 884 883 882 881 880 880 880 880 881 882 882 883 883 883 883 884 884 883 883 883 882 882 881 879 878 877 876 876 875 874 874 873 873 872 871 870 869 869 868 867 867 866 865 865 864 864
803 812 810 804 807 805 800 802 800 801 809 820 830 832 816 806 830 858 861 858 863 872 879 883 887 889 890 889 889 891 891 893 894 893 894 893 893 895 895 895 895 893 892 892 891 891 890 889 888 886 886 885 884 884 883 883 882 882 883 883 884 884 885 884 884 884 884 884 884 884 884 883 882 881 880 879 878 877 877 876 876 875 874 873 872 872 871 870 869 869 868 867 866 866 865 865 864
806 814 806 797 805 806 803 804 805 808 817 825 828 825 817 814 831 852 853 856 865 866 868 874 878 882 885 886 887 890 891 892 893 893 892 893 893 895 895 895 895 894 894 893 892 892 891 890 889 887 887 887 886 886 885 885 884 884 885 885 885 886 886 886 885 885 885 885 885 885 884 884 883 882 881 880 880 879 878 878 877 876 875 874 873 872 872 871 870 869 868 868 867 866 865 865 865
808 810 802 795 802 802 803 807 807 813 824 831 826 817 817 822 838 855 853 854 863 864 867 870 873 878 881 884 886 888 890 890 891 892 892 892 893 893 895 894 894 895 894 894 894 893 892 892 890 889 889 888 888 887 886 886 886 886 887 886 887 887 887 887 887 887 887 887 887 887 886 886 885 884 884 883 883 882 881 880 879 878 877 875 875 873 872 871 870 870 869 868 867 866 866 865 865
805 806 801 797 797 794 800 807 805 811 823 830 825 818 819 823 840 860 858 858 864 865 870 873 875 880 880 884 886 886 889 889 889 891 891 892 892 893 894 894 894 895 895 895 894 894 893 893 892 891 890 889 888 888 888 888 888 888 888 888 888 889 889 889 889 889 890 889 889 889 888 888 887 887 886 885 885 884 882 882 880 879 878 876 875 874 873 872 870 869 869 868 867 866 865 865 864
806 807 799 795 797 797 806 812 808 812 821 828 830 833 844 848 856 867 862 862 868 867 871 875 876 880 881 883 886 885 887 887 888 889 889 890 891 892 893 893 894 895 896 896 895 895 895 894 894 892 891 890 890 890 890 889 890 890 890 890 890 890 891 891 891 891 891 891 891 890 890 890 889 888 888 887 886 885 884 883 881 880 879 877 876 874 873 871 870 869 868 867 866 865 865 864 863
802 802 798 800 802 798 805 811 808 808 814 827 833 839 856 853 849 863 866 864 870 869 870 874 874 878 881 881 883 883 884 885 886 887 887 889 890 891 892 893 894 895 896 897 896 896 896 895 894 892 891 891 891 891 891 890 891 890 890 891 891 891 892 892 892 892 893 893 892 892 891 891 890 890 889 888 887 886 885 884 882 881 880 878 877 875 874 872 870 869 868 867 865 865 864 863 862
799 796 796 801 804 797 798 808 812 809 811 827 834 837 847 836 828 855 869 864 867 868 868 871 873 875 877 878 880 880 881 882 883 885 886 887 888 890 891 892 893 894 895 896 896 896 896 895 894 892 892 892 891 891 891 891 891 891 891 892 892 893 893 893 894 894 894 894 893 893 892 892 891 891 890 889 888 887 886 884 883 881 880 878 877 875 873 872 870 868 867 866 865 864 863 862 861
803 800 797 796 797 793 794 802 807 808 817 830 833 836 839 827 827 850 860 854 858 863 865 867 868 870 872 875 876 877 878 879 881 883 884 886 887 889 890 891 892 893 894 895 896 896 896 895 894 893 893 892 892 892 892 892 891 892 892 893 893 894 894 895 895 895 895 894 894 893 893 893 892 891 890 889 888 886 885 884 883 881 880 878 877 875 873 871 869 868 866 865 864 863 862 861 860
807 806 802 798 798 796 797 801 797 798 814 824 826 829 821 809 817 831 835 839 846 851 856 858 860 864 868 870 873 874 875 876 878 880 882 884 886 888 889 891 891 892 893 894 895 895 895 895 894 894 894 893 893 893 892 892 892 893 894 894 895 895 896 896 896 896 896 895 895 894 893 893 892 891 890 889 888 887 886 885 883 882 881 879 877 875 874 872 870 868 866 864 863 862 861 860 860
807 806 803 801 804 800 797 805 806 800 803 809 817 816 796 792 808 814 817 829 836 840 846 851 855 861 865 867 869 871 872 874 876 878 881 883 885 887 889 890 891 892 893 893 894 895 895 895 895 895 895 894 894 893 893 893 893 894 895 895 896 897 897 897 897 896 896 895 895 894 893 893 892 891 890 889 888 887 886 885 883 882 881 879 877 875 873 871 869 868 866 864 862 861 860 860 859
810 805 801 799 803 799 789 799 816 817 806 802 807 793 775 795 820 815 813 822 828 837 844 849 854 858 861 864 866 868 870 872 875 876 879 882 884 886 888 889 890 891 892 893 893 894 894 895 895 895 895 895 894 894 893 894 895 895 896 896 897 897 897 897 897 896 896 895 894 894 893 892 891 890 889 888 887 886 885 884 882 881 880 878 876 875 872 870 868 866 865 863 861 860 859 859 858